Regional Weather Roundup
Issued by NWS

Home | Current Version | Previous Version | Text Only | Print | Product List | Glossary Off
Versions: 1 2 3 4 5 6 7 8 9 10 11 12 13 14 15 16 17 18 19 20 21 22 23 24 25 26 27 28 29 30 31 32 33 34 35 36 37 38 39 40 41 42 43 44 45 46 47 48 49 50

000
ASUS43 KMKX 012311
RWRWI

WISCONSIN REGIONAL WEATHER ROUNDUP
NATIONAL WEATHER SERVICE MILWAUKEE/SULLIVAN WI
600 PM CDT FRI AUG 01 2014

NOTE: "FAIR" INDICATES FEW OR NO CLOUDS BELOW 12,000 FEET WITH NO
SIGNIFICANT WEATHER AND/OR OBSTRUCTIONS TO VISIBILITY.

WIZ001-002-006>008-014>016-023>028-020000-
NORTHWEST WISCONSIN

CITY           SKY/WX    TMP DP  RH WIND       PRES   REMARKS
SUPERIOR ARPT  MOSUNNY   62  53  72 NE7       30.06R
ASHLAND        SUNNY     73  62  68 N7        30.07S
HAYWARD        SUNNY     77  58  51 SE6       30.07R
SIREN          MOSUNNY   81  54  40 W3        30.06R HX  80
RICE LAKE      SUNNY     79  55  43 CALM      30.07S
LADYSMITH      MOSUNNY   78  56  46 N7        30.08S
EAU CLAIRE     MOSUNNY   82  59  45 N7        30.04S HX  82
MENOMONIE      CLEAR     82  55  38 NW5       30.04F HX  82
NEW RICHMOND   MOSUNNY   80  55  42 W3        30.05S HX  80
OSCEOLA        MOSUNNY   82  58  43 W3        30.07R HX  82
$$

WIZ003>005-009-010-017-018-020000-
NORTH CENTRAL WISCONSIN

CITY           SKY/WX    TMP DP  RH WIND       PRES   REMARKS
WOODRUFF       MOSUNNY   78  53  40 N8        30.09S
RHINELANDER    SUNNY     76  53  44 NW5       30.09R
EAGLE RIVER    MOSUNNY   75  50  40 N7        30.09R
LAND O LAKES   MOSUNNY   74  50  42 N9        30.10S
PHILLIPS       MOSUNNY   74  55  52 N5        30.09R
TOMAHAWK       MOSUNNY   75  54  47 CALM      30.08R
MEDFORD        MOSUNNY   76  58  54 NW6       30.07S
MERRILL        MOSUNNY   77  61  56 W6        30.07R
$$

WIZ029-030-035-036-043>047-020000-
CENTRAL WISCONSIN

CITY           SKY/WX    TMP DP  RH WIND       PRES   REMARKS
WAUSAU         PTSUNNY   75  63  66 CALM      30.05S
MOSINEE        MOSUNNY   70  63  78 S5        30.09R
MARSHFIELD     CLOUDY    69  60  73 CALM      30.07F
STEVENS POINT  CLOUDY    63  60  91 S7        30.10S
WAUPACA        CLOUDY    72  58  59 W8        30.07F
WAUTOMA        LGT RAIN  63  60  90 W10       30.10R
WISC RAPIDS    LGT RAIN  66  58  75 S9        30.11R
CAMP DOUGLAS   PTSUNNY   70  60  71 E13       30.07R
$$

WIZ011>013-019>022-031-037>040-048>050-020000-
NORTHEAST WISCONSIN

CITY           SKY/WX    TMP DP  RH WIND       PRES   REMARKS
ANTIGO         CLOUDY    76  56  51 N3        30.08R
STURGEON BAY   CLOUDY    72  63  73 S8        30.07R
GREEN BAY      CLOUDY    74  67  78 SW3       30.05R
MANITOWOC      CLOUDY    68  61  78 SE5       30.07R
APPLETON       CLOUDY    70  59  68 W12       30.07R
CLINTONVILLE   CLOUDY    68  61  77 NE3       30.06S
OSHKOSH        CLOUDY    73  66  78 SW8       30.04F
$$

WIZ032>034-041-042-053>061-020000-
SOUTHWEST WISCONSIN

CITY           SKY/WX    TMP DP  RH WIND       PRES   REMARKS
LA CROSSE      MOSUNNY   83  59  44 W5        30.05R HX  83
SPARTA         MOSUNNY   83  55  38 W6        30.06F HX  82
VIROQUA        FAIR      79  59  50 W3        30.08R HX  80
BOSCOBEL       SUNNY     85  59  41 N5        30.06R HX  84
PRAIRIE DU CHI SUNNY     82  52  34 W5        30.05R HX  81
PLATTEVILLE    FAIR      81  58  45 W5        30.07S HX  81
$$

WIZ056-057-062-063-064-067-068-020000-
SOUTH CENTRAL WISCONSIN

CITY           SKY/WX    TMP DP  RH WIND       PRES   REMARKS
BARABOO/DELLS  LGT RAIN  67  55  65 NE10G32   30.12R
LONE ROCK      SUNNY     86  61  42 NW7       30.06R HX  86
WATERTOWN      PTSUNNY   74  61  64 CALM      30.06R THUNDER
MADISON        TSTM      61  57  87 N3        30.09R
MIDDLETON      FAIR      81  54  39 NW3       30.07R HX  81
MONROE         SUNNY     81  52  36 CALM      30.06R THUNDER HX  80
JANESVILLE     MOSUNNY   84  46  26 NW3       30.04S HX  82
$$

WIZ051-052-058>065-066-070>072-020000-
SOUTHEAST WISCONSIN

CITY           SKY/WX    TMP DP  RH WIND       PRES   REMARKS
MILWAUKEE      PTSUNNY   72  64  76 E6        30.06R THUNDER
WAUKESHA       TSTM      63  57  82 N23G36    30.14R VSB 1
MILWAUKEE/TIMM TSTM      63  54  72 N12       30.10R
RACINE         PTSUNNY   76  59  55 S15       30.08R
BURLINGTON     PTSUNNY   79  55  42 CALM      30.05R HX  80
KENOSHA        MOSUNNY   79  59  50 S14       30.06S HX  80
FOND DU LAC    CLOUDY    75  62  64 SW5       30.06R
SHEBOYGAN      CLOUDY    71  61  70 S10       30.07R
WEST BEND      CLOUDY    70  54  56 SE5       30.10R
JUNEAU         CLOUDY    75  54  47 N6        30.08R THUNDER
$$

LSZ147-162-020000-
LAKE SUPERIOR

STATION/POSITION TIME  TEMP    WIND        PRES    WAVE
                       AIR SEA DIR/SP/G            HT/PER
                 (UTC) (F)     (DEG/KT/KT) (MB)    (FT/S)
W MID LAKE BUOY  2250   52 48   10/  2/  4 1018.5F   0
PORT WING        2200   64      30/ 11/ 14 1017.9S
SAXON HARBOR     2200             CALM     1018.6
$$

LMZ867-665-643>646-020000-
LAKE MICHIGAN

STATION/POSITION TIME  TEMP    WIND        PRES    WAVE
                       AIR SEA DIR/SP/G            HT/PER
                 (UTC) (F)     (DEG/KT/KT) (MB)    (FT/S)
N MID LAKE BUOY  2250   64 62  160/  4/  4 1017.5F   0
NORTHPORT PIER   2200   64     110/  7/  8 1017.6S
SISTER BAY       2211   70     110/ 10/ 13   N/A
ALGOMA LAKESHORE 2251             CALM       N/A
KEWAUNEE LAKESHO 2200   67     160/  6/  6 1017.1R
SHEBOYGAN LAKESH 2300   71     210/  9/ 10 1017.8S
PORT WASHINGTON  2200   67     160/  7/ 14 1019.0
ATWATER BUOY     2200   70     160/ 14     1018.2F
MILWAUKEE LAKESH 2200   70     160/ 12/ 15   N/A
S MID LAKE BUOY  2250   68 66  170/ 10/ 10 1018.1S   0
KENOSHA   LAKESH 2200   70     170/ 10/ 12 1017.3F
$$

TC  - TEMPERATURE IN CELSIUS
VSB - VISIBILITY IN STATUTE MILES
WCI - WIND CHILL INDEX
HX  - HEAT INDEX




USA.gov is the U.S. government's official web portal to all federal, state and local government web resources and services.